Time,TemperatureF,DewpointF,PressureIn,WindDirection,WindDirectionDegrees,WindSpeedMPH,WindSpeedGustMPH,Humidity,HourlyPrecipIn,Conditions,Clouds,dailyrainin,SoftwareType,DateUTC
2013-11-14 00:01:00,34.5,14.9,30.14,East,87,0.0,0.0,44,0.00,,---,0.00,VWS V14.01,2013-11-14 07:01:00,
2013-11-14 00:06:00,34.3,14.7,30.14,East,87,0.0,0.0,44,0.00,,---,0.00,VWS V14.01,2013-11-14 07:06:00,
2013-11-14 00:11:00,33.8,14.2,30.14,SW,227,0.0,0.0,44,0.00,,---,0.00,VWS V14.01,2013-11-14 07:11:00,
2013-11-14 00:16:00,33.8,14.7,30.14,SW,227,0.0,0.0,45,0.00,,---,0.00,VWS V14.01,2013-11-14 07:16:00,
2013-11-14 00:21:00,33.3,13.7,30.14,SW,227,0.0,0.0,44,0.00,,---,0.00,VWS V14.01,2013-11-14 07:21:00,
2013-11-14 00:26:00,32.7,13.2,30.14,SW,227,0.0,4.0,44,0.00,,---,0.00,VWS V14.01,2013-11-14 07:26:00,
2013-11-14 00:31:00,32.7,13.7,30.14,SW,227,0.0,0.0,45,0.00,,---,0.00,VWS V14.01,2013-11-14 07:31:00,
2013-11-14 00:36:00,32.5,13.6,30.14,SW,227,0.0,0.0,45,0.00,,---,0.00,VWS V14.01,2013-11-14 07:36:00,
2013-11-14 00:41:00,32.4,13.9,30.11,West,262,2.7,3.6,46,0.00,,---,0.00,VWS V14.01,2013-11-14 07:41:00,
2013-11-14 00:46:00,32.5,15.0,30.11,West,280,0.0,0.0,48,0.00,,---,0.00,VWS V14.01,2013-11-14 07:46:00,
2013-11-14 00:51:00,32.4,14.4,30.11,West,281,0.0,0.0,47,0.00,,---,0.00,VWS V14.01,2013-11-14 07:51:00,
2013-11-14 00:56:00,32.4,14.9,30.11,WSW,243,0.0,0.0,48,0.00,,---,0.00,VWS V14.01,2013-11-14 07:56:00,
2013-11-14 01:01:00,32.2,14.7,30.11,West,266,0.0,0.0,48,0.00,,---,0.00,VWS V14.01,2013-11-14 08:01:00,
2013-11-14 01:06:00,32.2,15.2,30.11,SSE,168,0.0,0.0,49,0.00,,---,0.00,VWS V14.01,2013-11-14 08:06:00,
2013-11-14 01:11:00,31.8,14.9,30.11,SSE,159,4.0,5.8,49,0.00,,---,0.00,VWS V14.01,2013-11-14 08:11:00,
2013-11-14 01:16:00,33.3,16.6,30.11,SSE,150,0.0,4.0,50,0.00,,---,0.00,VWS V14.01,2013-11-14 08:16:00,
2013-11-14 01:21:00,34.2,17.0,30.11,South,180,3.1,4.0,49,0.00,,---,0.00,VWS V14.01,2013-11-14 08:21:00,
2013-11-14 01:26:00,33.8,16.2,30.11,SE,146,3.1,4.0,48,0.00,,---,0.00,VWS V14.01,2013-11-14 08:26:00,
2013-11-14 01:31:00,34.0,16.4,30.11,South,180,3.1,3.6,48,0.00,,---,0.00,VWS V14.01,2013-11-14 08:31:00,
2013-11-14 01:36:00,33.3,15.2,30.11,SW,230,0.0,3.6,47,0.00,,---,0.00,VWS V14.01,2013-11-14 08:36:00,
2013-11-14 01:41:00,32.2,14.2,30.11,SW,230,0.0,3.6,47,0.00,,---,0.00,VWS V14.01,2013-11-14 08:41:00,
2013-11-14 01:46:00,31.6,13.7,30.11,SW,230,0.0,0.0,47,0.00,,---,0.00,VWS V14.01,2013-11-14 08:46:00,
2013-11-14 01:51:00,31.3,13.9,30.11,West,268,4.0,4.0,48,0.00,,---,0.00,VWS V14.01,2013-11-14 08:51:00,
2013-11-14 01:56:00,30.9,13.6,30.08,WSW,244,0.0,4.0,48,0.00,,---,0.00,VWS V14.01,2013-11-14 08:56:00,
2013-11-14 02:01:00,30.9,14.0,30.08,West,264,3.1,4.0,49,0.00,,---,0.00,VWS V14.01,2013-11-14 09:01:00,
2013-11-14 02:06:00,30.7,14.8,30.08,WNW,297,0.0,4.0,51,0.00,,---,0.00,VWS V14.01,2013-11-14 09:06:00,
2013-11-14 02:11:00,31.3,15.3,30.08,WSW,240,2.2,4.0,51,0.00,,---,0.00,VWS V14.01,2013-11-14 09:11:00,
2013-11-14 02:16:00,31.5,15.4,30.08,SE,131,0.0,0.0,51,0.00,,---,0.00,VWS V14.01,2013-11-14 09:16:00,
2013-11-14 02:21:00,31.3,15.3,30.08,SSW,210,0.0,0.0,51,0.00,,---,0.00,VWS V14.01,2013-11-14 09:21:00,
2013-11-14 02:26:00,32.2,16.5,30.08,NNE,12,0.0,2.2,52,0.00,,---,0.00,VWS V14.01,2013-11-14 09:26:00,
2013-11-14 02:31:00,32.2,16.1,30.08,South,175,5.4,5.8,51,0.00,,---,0.00,VWS V14.01,2013-11-14 09:31:00,
2013-11-14 02:36:00,32.4,16.3,30.08,South,169,0.0,5.8,51,0.00,,---,0.00,VWS V14.01,2013-11-14 09:36:00,
2013-11-14 02:41:00,32.4,16.3,30.08,WSW,237,0.0,5.8,51,0.00,,---,0.00,VWS V14.01,2013-11-14 09:41:00,
2013-11-14 02:46:00,32.4,16.3,30.08,West,260,0.0,0.0,51,0.00,,---,0.00,VWS V14.01,2013-11-14 09:46:00,
2013-11-14 02:51:00,32.5,16.4,30.08,West,264,0.0,0.0,51,0.00,,---,0.00,VWS V14.01,2013-11-14 09:51:00,
2013-11-14 02:56:00,32.4,16.3,30.08,ESE,118,4.0,5.4,51,0.00,,---,0.00,VWS V14.01,2013-11-14 09:56:00,
2013-11-14 03:01:00,33.1,16.9,30.08,West,277,0.0,3.1,51,0.00,,---,0.00,VWS V14.01,2013-11-14 10:01:00,
2013-11-14 03:06:00,33.3,17.1,30.08,West,277,0.0,3.1,51,0.00,,---,0.00,VWS V14.01,2013-11-14 10:06:00,
2013-11-14 03:11:00,33.6,17.4,30.08,SSE,157,0.0,3.1,51,0.00,,---,0.00,VWS V14.01,2013-11-14 10:11:00,
2013-11-14 03:16:00,33.3,16.6,30.08,SSE,157,0.0,0.0,50,0.00,,---,0.00,VWS V14.01,2013-11-14 10:16:00,
2013-11-14 03:21:00,32.7,16.1,30.08,SW,221,0.0,0.0,50,0.00,,---,0.00,VWS V14.01,2013-11-14 10:21:00,
2013-11-14 03:26:00,32.4,15.8,30.08,SW,221,0.0,0.0,50,0.00,,---,0.00,VWS V14.01,2013-11-14 10:26:00,
2013-11-14 03:31:00,31.5,15.0,30.08,SSW,213,2.2,3.1,50,0.00,,---,0.00,VWS V14.01,2013-11-14 10:31:00,
2013-11-14 03:36:00,30.9,14.5,30.08,SSW,213,0.0,3.1,50,0.00,,---,0.00,VWS V14.01,2013-11-14 10:36:00,
2013-11-14 03:41:00,30.6,14.6,30.08,West,264,0.0,3.1,51,0.00,,---,0.00,VWS V14.01,2013-11-14 10:41:00,
2013-11-14 03:46:00,30.2,14.3,30.08,West,277,0.0,0.0,51,0.00,,---,0.00,VWS V14.01,2013-11-14 10:46:00,
2013-11-14 03:51:00,29.5,13.6,30.08,SSE,164,0.0,0.0,51,0.00,,---,0.00,VWS V14.01,2013-11-14 10:51:00,
2013-11-14 03:56:00,29.5,13.6,30.08,South,173,0.0,0.0,51,0.00,,---,0.00,VWS V14.01,2013-11-14 10:56:00,
2013-11-14 04:01:00,29.5,13.6,30.08,SW,221,0.0,0.0,51,0.00,,---,0.00,VWS V14.01,2013-11-14 11:01:00,
2013-11-14 04:06:00,29.5,13.6,30.08,WSW,251,0.0,0.0,51,0.00,,---,0.00,VWS V14.01,2013-11-14 11:06:00,
2013-11-14 04:11:00,29.3,13.9,30.05,WSW,251,0.0,0.0,52,0.00,,---,0.00,VWS V14.01,2013-11-14 11:11:00,
2013-11-14 04:16:00,29.5,14.5,30.05,WSW,255,0.0,0.0,53,0.00,,---,0.00,VWS V14.01,2013-11-14 11:16:00,
2013-11-14 04:21:00,29.3,13.9,30.05,WSW,255,0.0,0.0,52,0.00,,---,0.00,VWS V14.01,2013-11-14 11:21:00,
2013-11-14 04:26:00,28.9,13.5,30.05,WSW,255,0.0,0.0,52,0.00,,---,0.00,VWS V14.01,2013-11-14 11:26:00,
2013-11-14 04:31:00,28.9,14.0,30.05,West,262,0.0,2.7,53,0.00,,---,0.00,VWS V14.01,2013-11-14 11:31:00,
2013-11-14 04:36:00,29.1,14.6,30.05,West,262,0.0,2.7,54,0.00,,---,0.00,VWS V14.01,2013-11-14 11:36:00,
2013-11-14 04:41:00,29.3,14.7,30.05,West,262,0.0,2.7,54,0.00,,---,0.00,VWS V14.01,2013-11-14 11:41:00,
2013-11-14 04:46:00,29.3,14.7,30.05,West,262,0.0,0.0,54,0.00,,---,0.00,VWS V14.01,2013-11-14 11:46:00,
2013-11-14 04:51:00,29.1,14.6,30.05,WSW,258,0.0,0.0,54,0.00,,---,0.00,VWS V14.01,2013-11-14 11:51:00,
2013-11-14 04:56:00,28.9,14.4,30.05,WSW,258,0.0,0.0,54,0.00,,---,0.00,VWS V14.01,2013-11-14 11:56:00,
2013-11-14 05:01:00,28.8,14.2,30.05,WSW,258,0.0,0.0,54,0.00,,---,0.00,VWS V14.01,2013-11-14 12:01:00,
2013-11-14 05:06:00,28.6,14.1,30.05,WSW,258,0.0,0.0,54,0.00,,---,0.00,VWS V14.01,2013-11-14 12:06:00,
2013-11-14 05:11:00,28.4,14.3,30.05,WSW,258,0.0,0.0,55,0.00,,---,0.00,VWS V14.01,2013-11-14 12:11:00,
2013-11-14 05:16:00,28.4,13.9,30.05,WSW,258,0.0,0.0,54,0.00,,---,0.00,VWS V14.01,2013-11-14 12:16:00,
2013-11-14 05:21:00,28.4,14.3,30.05,West,268,0.0,4.0,55,0.00,,---,0.00,VWS V14.01,2013-11-14 12:21:00,
2013-11-14 05:26:00,28.0,14.0,30.05,West,269,0.0,4.0,55,0.00,,---,0.00,VWS V14.01,2013-11-14 12:26:00,
2013-11-14 05:31:00,27.9,14.2,30.05,WSW,254,0.0,0.0,56,0.00,,---,0.00,VWS V14.01,2013-11-14 12:31:00,
2013-11-14 05:36:00,27.7,14.0,30.05,WSW,254,0.0,0.0,56,0.00,,---,0.00,VWS V14.01,2013-11-14 12:36:00,
2013-11-14 05:41:00,27.9,14.2,30.05,West,259,0.0,0.0,56,0.00,,---,0.00,VWS V14.01,2013-11-14 12:41:00,
2013-11-14 05:46:00,27.9,14.2,30.05,West,262,0.0,0.0,56,0.00,,---,0.00,VWS V14.01,2013-11-14 12:46:00,
2013-11-14 05:51:00,27.7,14.0,30.05,West,262,0.0,0.0,56,0.00,,---,0.00,VWS V14.01,2013-11-14 12:51:00,
2013-11-14 05:56:00,27.5,13.5,30.05,SW,231,0.0,0.0,55,0.00,,---,0.00,VWS V14.01,2013-11-14 12:56:00,
2013-11-14 06:01:00,27.0,13.4,30.05,WSW,245,0.0,0.0,56,0.00,,---,0.00,VWS V14.01,2013-11-14 13:01:00,
2013-11-14 06:06:00,27.0,13.4,30.05,WSW,246,0.0,0.0,56,0.00,,---,0.00,VWS V14.01,2013-11-14 13:06:00,
2013-11-14 06:11:00,27.0,13.8,30.05,WSW,246,0.0,0.0,57,0.00,,---,0.00,VWS V14.01,2013-11-14 13:11:00,
2013-11-14 06:16:00,27.1,13.9,30.05,WSW,247,0.0,0.0,57,0.00,,---,0.00,VWS V14.01,2013-11-14 13:16:00,
2013-11-14 06:21:00,27.0,13.8,30.05,WSW,250,0.0,0.0,57,0.00,,---,0.00,VWS V14.01,2013-11-14 13:21:00,
2013-11-14 06:26:00,26.8,13.6,30.02,WSW,250,0.0,0.0,57,0.00,,---,0.00,VWS V14.01,2013-11-14 13:26:00,
2013-11-14 06:31:00,27.0,13.8,30.02,WSW,250,0.0,0.0,57,0.00,,---,0.00,VWS V14.01,2013-11-14 13:31:00,
2013-11-14 06:36:00,27.0,13.8,30.02,WSW,250,0.0,0.0,57,0.00,,---,0.00,VWS V14.01,2013-11-14 13:36:00,
2013-11-14 06:41:00,27.0,13.8,30.02,WSW,250,0.0,0.0,57,0.00,,---,0.00,VWS V14.01,2013-11-14 13:41:00,
2013-11-14 06:46:00,26.8,13.6,30.02,West,259,0.0,0.0,57,0.00,,---,0.00,VWS V14.01,2013-11-14 13:46:00,
2013-11-14 06:51:00,26.6,13.8,30.02,West,260,0.0,3.1,58,0.00,,---,0.00,VWS V14.01,2013-11-14 13:51:00,
2013-11-14 06:56:00,26.8,14.0,30.02,West,260,0.0,3.1,58,0.00,,---,0.00,VWS V14.01,2013-11-14 13:56:00,
2013-11-14 07:01:00,27.1,14.3,30.02,West,260,0.0,0.0,58,0.00,,---,0.00,VWS V14.01,2013-11-14 14:01:00,
2013-11-14 07:06:00,27.1,14.3,30.02,West,260,0.0,0.0,58,0.00,,---,0.00,VWS V14.01,2013-11-14 14:06:00,
2013-11-14 07:11:00,27.0,13.8,30.02,West,260,0.0,0.0,57,0.00,,---,0.00,VWS V14.01,2013-11-14 14:11:00,
2013-11-14 07:16:00,26.8,13.6,29.99,West,260,0.0,0.0,57,0.00,,---,0.00,VWS V14.01,2013-11-14 14:16:00,
2013-11-14 07:21:00,26.8,13.6,29.99,WSW,247,0.0,0.0,57,0.00,,---,0.00,VWS V14.01,2013-11-14 14:21:00,
2013-11-14 07:26:00,26.8,13.6,29.99,WSW,247,0.0,0.0,57,0.00,,---,0.00,VWS V14.01,2013-11-14 14:26:00,
2013-11-14 07:31:00,26.6,13.8,29.99,WSW,247,0.0,0.0,58,0.00,,---,0.00,VWS V14.01,2013-11-14 14:31:00,
2013-11-14 07:36:00,26.4,13.7,29.99,WSW,247,0.0,0.0,58,0.00,,---,0.00,VWS V14.01,2013-11-14 14:36:00,
2013-11-14 07:41:00,26.6,13.8,29.99,WSW,248,0.0,0.0,58,0.00,,---,0.00,VWS V14.01,2013-11-14 14:41:00,
2013-11-14 07:46:00,26.8,14.0,29.99,WSW,249,0.0,0.0,58,0.00,,---,0.00,VWS V14.01,2013-11-14 14:46:00,
2013-11-14 07:47:00,26.8,14.0,29.99,WSW,249,0.0,0.0,58,0.00,,---,0.00,VWS V14.01,2013-11-14 14:47:00,
2013-11-14 07:52:00,27.1,14.7,29.99,WSW,249,0.0,0.0,59,0.00,,---,0.00,VWS V14.01,2013-11-14 14:52:00,
2013-11-14 07:57:00,27.5,15.1,29.99,WSW,249,0.0,0.0,59,0.00,,---,0.00,VWS V14.01,2013-11-14 14:57:00,
2013-11-14 08:02:00,27.9,15.4,29.99,WSW,249,0.0,0.0,59,0.00,,---,0.00,VWS V14.01,2013-11-14 15:02:00,
2013-11-14 08:07:00,27.9,15.4,29.99,WSW,249,0.0,0.0,59,0.00,,---,0.00,VWS V14.01,2013-11-14 15:07:00,
2013-11-14 08:12:00,27.7,14.9,29.99,WSW,249,0.0,0.0,58,0.00,,---,0.00,VWS V14.01,2013-11-14 15:12:00,
2013-11-14 08:17:00,27.7,15.2,29.99,West,275,0.0,0.0,59,0.00,,---,0.00,VWS V14.01,2013-11-14 15:17:00,
2013-11-14 08:22:00,27.7,15.2,29.99,West,275,0.0,0.0,59,0.00,,---,0.00,VWS V14.01,2013-11-14 15:22:00,
2013-11-14 08:27:00,27.9,15.4,29.99,West,275,0.0,0.0,59,0.00,,---,0.00,VWS V14.01,2013-11-14 15:27:00,
2013-11-14 08:32:00,28.2,16.1,29.99,West,275,0.0,0.0,60,0.00,,---,0.00,VWS V14.01,2013-11-14 15:32:00,
2013-11-14 08:37:00,28.8,16.6,29.99,WSW,258,0.0,0.0,60,0.00,,---,0.00,VWS V14.01,2013-11-14 15:37:00,
2013-11-14 08:42:00,30.0,17.8,29.99,SW,225,3.6,3.6,60,0.00,,---,0.00,VWS V14.01,2013-11-14 15:42:00,
2013-11-14 08:47:00,31.3,19.0,29.99,SW,234,0.0,0.0,60,0.00,,---,0.00,VWS V14.01,2013-11-14 15:47:00,
2013-11-14 08:52:00,32.2,19.9,29.99,SW,234,0.0,0.0,60,0.00,,---,0.00,VWS V14.01,2013-11-14 15:52:00,
2013-11-14 08:57:00,33.4,21.5,29.99,SE,136,0.0,0.0,61,0.00,,---,0.00,VWS V14.01,2013-11-14 15:57:00,
2013-11-14 09:02:00,34.7,22.2,29.99,SE,136,0.0,0.0,60,0.00,,---,0.00,VWS V14.01,2013-11-14 16:02:00,
2013-11-14 09:07:00,35.6,23.1,29.99,SE,136,0.0,0.0,60,0.00,,---,0.00,VWS V14.01,2013-11-14 16:07:00,
2013-11-14 09:12:00,36.1,23.2,29.99,SE,136,0.0,0.0,59,0.00,,---,0.00,VWS V14.01,2013-11-14 16:12:00,
2013-11-14 09:17:00,36.3,23.4,29.99,SSE,160,0.0,0.0,59,0.00,,---,0.00,VWS V14.01,2013-11-14 16:17:00,
2013-11-14 09:22:00,36.3,23.0,29.99,SSE,160,0.0,0.0,58,0.00,,---,0.00,VWS V14.01,2013-11-14 16:22:00,
2013-11-14 09:27:00,36.5,23.1,29.96,SSE,160,0.0,0.0,58,0.00,,---,0.00,VWS V14.01,2013-11-14 16:27:00,
2013-11-14 09:32:00,36.9,23.5,29.96,SSE,160,0.0,0.0,58,0.00,,---,0.00,VWS V14.01,2013-11-14 16:32:00,
2013-11-14 09:37:00,38.1,24.7,29.96,ESE,106,0.0,3.1,58,0.00,,---,0.00,VWS V14.01,2013-11-14 16:37:00,
2013-11-14 09:41:00,39.9,25.9,29.96,WSW,251,0.0,3.1,57,0.00,,---,0.00,VWS V14.01,2013-11-14 16:41:00,
2013-11-14 09:46:00,39.7,24.9,29.96,SW,228,0.0,0.0,55,0.00,,---,0.00,VWS V14.01,2013-11-14 16:46:00,
2013-11-14 09:51:00,39.2,24.0,29.96,SSE,164,2.2,3.1,54,0.00,,---,0.00,VWS V14.01,2013-11-14 16:51:00,
2013-11-14 09:56:00,38.8,23.2,29.96,SW,218,0.0,4.0,53,0.00,,---,0.00,VWS V14.01,2013-11-14 16:56:00,
2013-11-14 10:01:00,38.7,19.7,29.96,SW,218,0.0,0.0,46,0.00,,---,0.00,VWS V14.01,2013-11-14 17:01:00,
2013-11-14 10:06:00,39.2,18.6,29.96,North,357,0.0,0.0,43,0.00,,---,0.00,VWS V14.01,2013-11-14 17:06:00,
2013-11-14 10:11:00,38.3,17.2,29.96,North,353,5.4,5.4,42,0.00,,---,0.00,VWS V14.01,2013-11-14 17:11:00,
2013-11-14 10:16:00,37.4,17.5,29.96,NNE,12,2.7,4.0,44,0.00,,---,0.00,VWS V14.01,2013-11-14 17:16:00,
2013-11-14 10:21:00,36.9,18.0,29.96,North,9,2.7,4.0,46,0.00,,---,0.00,VWS V14.01,2013-11-14 17:21:00,
2013-11-14 10:26:00,36.3,18.0,29.96,North,5,3.1,4.0,47,0.00,,---,0.00,VWS V14.01,2013-11-14 17:26:00,
2013-11-14 10:31:00,36.7,18.4,29.96,North,357,2.7,3.1,47,0.00,,---,0.00,VWS V14.01,2013-11-14 17:31:00,
2013-11-14 10:36:00,37.2,19.4,29.96,North,2,3.1,4.0,48,0.00,,---,0.00,VWS V14.01,2013-11-14 17:36:00,
2013-11-14 10:41:00,37.4,18.5,29.96,North,357,2.7,4.0,46,0.00,,---,0.00,VWS V14.01,2013-11-14 17:41:00,
2013-11-14 10:46:00,37.8,18.9,29.96,North,0,2.2,3.1,46,0.00,,---,0.00,VWS V14.01,2013-11-14 17:46:00,
2013-11-14 10:52:00,38.5,18.5,29.96,North,0,0.0,3.6,44,0.00,,---,0.00,VWS V14.01,2013-11-14 17:52:00,
2013-11-14 10:56:00,39.2,18.6,29.93,North,2,0.0,3.6,43,0.00,,---,0.00,VWS V14.01,2013-11-14 17:56:00,
2013-11-14 11:01:00,40.1,18.9,29.93,North,357,0.0,3.1,42,0.00,,---,0.00,VWS V14.01,2013-11-14 18:01:00,
2013-11-14 11:06:00,41.7,20.3,29.93,NE,48,0.0,3.1,42,0.00,,---,0.00,VWS V14.01,2013-11-14 18:06:00,
2013-11-14 11:11:00,43.2,20.5,29.93,NE,46,0.0,3.1,40,0.00,,---,0.00,VWS V14.01,2013-11-14 18:11:00,
2013-11-14 11:16:00,44.6,21.8,29.93,East,89,0.0,0.0,40,0.00,,---,0.00,VWS V14.01,2013-11-14 18:16:00,
2013-11-14 11:21:00,45.3,22.4,29.93,East,89,0.0,0.0,40,0.00,,---,0.00,VWS V14.01,2013-11-14 18:21:00,
2013-11-14 11:26:00,45.1,21.1,29.93,East,89,0.0,0.0,38,0.00,,---,0.00,VWS V14.01,2013-11-14 18:26:00,
2013-11-14 11:31:00,43.9,19.9,29.93,East,89,0.0,0.0,38,0.00,,---,0.00,VWS V14.01,2013-11-14 18:31:00,
2013-11-14 11:36:00,43.3,19.5,29.93,ENE,70,0.0,0.0,38,0.00,,---,0.00,VWS V14.01,2013-11-14 18:36:00,
2013-11-14 11:41:00,44.2,20.3,29.91,ENE,72,0.0,3.6,38,0.00,,---,0.00,VWS V14.01,2013-11-14 18:41:00,
2013-11-14 11:46:00,44.4,19.1,29.91,North,4,2.2,3.1,36,0.00,,---,0.00,VWS V14.01,2013-11-14 18:46:00,
2013-11-14 11:51:00,44.6,20.0,29.91,East,84,0.0,3.1,37,0.00,,---,0.00,VWS V14.01,2013-11-14 18:51:00,
2013-11-14 11:56:00,44.1,19.5,29.91,NNE,15,0.0,3.1,37,0.00,,---,0.00,VWS V14.01,2013-11-14 18:56:00,
2013-11-14 12:01:00,43.7,19.1,29.91,North,7,0.0,0.0,37,0.00,,---,0.00,VWS V14.01,2013-11-14 19:01:00,
2013-11-14 12:06:00,43.5,19.6,29.91,North,2,2.7,3.6,38,0.00,,---,0.00,VWS V14.01,2013-11-14 19:06:00,
2013-11-14 12:11:00,43.5,19.6,29.91,NNE,15,0.0,3.6,38,0.00,,---,0.00,VWS V14.01,2013-11-14 19:11:00,
2013-11-14 12:16:00,43.2,19.3,29.91,North,8,3.6,3.6,38,0.00,,---,0.00,VWS V14.01,2013-11-14 19:16:00,
2013-11-14 12:21:00,42.4,18.6,29.91,North,11,3.6,5.4,38,0.00,,---,0.00,VWS V14.01,2013-11-14 19:21:00,
2013-11-14 12:26:00,42.3,19.1,29.88,North,357,3.6,5.4,39,0.00,,---,0.00,VWS V14.01,2013-11-14 19:26:00,
2013-11-14 12:31:00,42.3,19.1,29.88,North,357,6.3,6.3,39,0.00,,---,0.00,VWS V14.01,2013-11-14 19:31:00,
2013-11-14 12:36:00,42.8,19.0,29.88,North,4,4.0,6.3,38,0.00,,---,0.00,VWS V14.01,2013-11-14 19:36:00,
2013-11-14 12:41:00,43.3,19.5,29.88,NNW,340,3.1,6.3,38,0.00,,---,0.00,VWS V14.01,2013-11-14 19:41:00,
2013-11-14 12:46:00,43.9,19.9,29.88,NNW,345,2.2,4.9,38,0.00,,---,0.00,VWS V14.01,2013-11-14 19:46:00,
2013-11-14 12:51:00,43.7,19.8,29.88,North,353,3.1,5.8,38,0.00,,---,0.00,VWS V14.01,2013-11-14 19:51:00,
2013-11-14 12:56:00,43.7,19.8,29.88,NNE,14,2.7,5.8,38,0.00,,---,0.00,VWS V14.01,2013-11-14 19:56:00,
2013-11-14 13:01:00,43.5,19.6,29.88,North,357,4.0,4.0,38,0.00,,---,0.00,VWS V14.01,2013-11-14 20:01:00,
2013-11-14 13:06:00,42.8,19.0,29.88,North,353,0.0,4.0,38,0.00,,---,0.00,VWS V14.01,2013-11-14 20:06:00,
2013-11-14 13:11:00,42.3,18.5,29.88,North,1,3.6,5.4,38,0.00,,---,0.00,VWS V14.01,2013-11-14 20:11:00,
2013-11-14 13:16:00,41.7,18.0,29.88,North,357,5.4,5.4,38,0.00,,---,0.00,VWS V14.01,2013-11-14 20:16:00,
2013-11-14 13:21:00,41.7,18.0,29.88,North,8,2.7,5.4,38,0.00,,---,0.00,VWS V14.01,2013-11-14 20:21:00,
2013-11-14 13:26:00,42.6,18.8,29.88,North,11,3.1,5.4,38,0.00,,---,0.00,VWS V14.01,2013-11-14 20:26:00,
2013-11-14 13:31:00,43.0,19.1,29.88,North,3,0.0,0.0,38,0.00,,---,0.00,VWS V14.01,2013-11-14 20:31:00,
2013-11-14 13:36:00,43.0,18.5,29.88,North,3,0.0,0.0,37,0.00,,---,0.00,VWS V14.01,2013-11-14 20:36:00,
2013-11-14 13:41:00,42.4,18.6,29.85,North,4,0.0,0.0,38,0.00,,---,0.00,VWS V14.01,2013-11-14 20:41:00,
2013-11-14 13:46:00,42.4,18.6,29.85,NNE,15,3.6,4.0,38,0.00,,---,0.00,VWS V14.01,2013-11-14 20:46:00,
2013-11-14 13:51:00,43.0,18.5,29.85,North,6,2.7,4.0,37,0.00,,---,0.00,VWS V14.01,2013-11-14 20:51:00,
2013-11-14 13:56:00,43.3,17.5,29.85,North,4,4.0,5.4,35,0.00,,---,0.00,VWS V14.01,2013-11-14 20:56:00,
2013-11-14 14:01:00,42.8,17.1,29.85,North,357,3.6,5.4,35,0.00,,---,0.00,VWS V14.01,2013-11-14 21:01:00,
2013-11-14 14:06:00,42.6,17.5,29.85,NNE,14,3.6,5.4,36,0.00,,---,0.00,VWS V14.01,2013-11-14 21:06:00,
2013-11-14 14:11:00,43.0,17.2,29.85,North,0,4.0,5.4,35,0.00,,---,0.00,VWS V14.01,2013-11-14 21:11:00,
2013-11-14 14:16:00,43.2,18.0,29.85,North,2,3.6,3.6,36,0.00,,---,0.00,VWS V14.01,2013-11-14 21:16:00,
2013-11-14 14:21:00,43.0,17.2,29.85,NNE,13,3.1,4.9,35,0.00,,---,0.00,VWS V14.01,2013-11-14 21:21:00,
2013-11-14 14:26:00,43.2,17.4,29.85,North,5,2.7,4.9,35,0.00,,---,0.00,VWS V14.01,2013-11-14 21:26:00,
2013-11-14 14:31:00,43.0,16.5,29.85,North,0,2.7,4.0,34,0.00,,---,0.00,VWS V14.01,2013-11-14 21:31:00,
2013-11-14 14:36:00,43.5,17.0,29.85,NNW,340,3.1,4.0,34,0.00,,---,0.00,VWS V14.01,2013-11-14 21:36:00,
2013-11-14 14:41:00,44.2,17.7,29.85,North,0,2.7,4.0,34,0.00,,---,0.00,VWS V14.01,2013-11-14 21:41:00,
2013-11-14 14:46:00,44.6,17.3,29.85,North,4,2.7,4.0,33,0.00,,---,0.00,VWS V14.01,2013-11-14 21:46:00,
2013-11-14 14:51:00,45.0,17.6,29.85,North,357,0.0,4.0,33,0.00,,---,0.00,VWS V14.01,2013-11-14 21:51:00,
2013-11-14 14:56:00,45.5,17.4,29.82,North,3,3.1,5.4,32,0.00,,---,0.00,VWS V14.01,2013-11-14 21:56:00,
2013-11-14 15:01:00,46.0,17.1,29.82,North,357,0.0,3.1,31,0.00,,---,0.00,VWS V14.01,2013-11-14 22:01:00,
2013-11-14 15:06:00,47.3,18.2,29.82,North,353,2.2,4.0,31,0.00,,---,0.00,VWS V14.01,2013-11-14 22:06:00,
2013-11-14 15:11:00,46.2,16.5,29.82,NNW,345,2.7,5.4,30,0.00,,---,0.00,VWS V14.01,2013-11-14 22:11:00,
2013-11-14 15:16:00,45.3,16.5,29.82,North,5,0.0,2.7,31,0.00,,---,0.00,VWS V14.01,2013-11-14 22:16:00,
2013-11-14 15:21:00,45.3,16.5,29.82,North,5,0.0,2.7,31,0.00,,---,0.00,VWS V14.01,2013-11-14 22:21:00,
2013-11-14 15:26:00,45.1,16.3,29.82,North,5,0.0,2.7,31,0.00,,---,0.00,VWS V14.01,2013-11-14 22:26:00,
2013-11-14 15:31:00,44.6,15.9,29.82,North,5,0.0,0.0,31,0.00,,---,0.00,VWS V14.01,2013-11-14 22:31:00,
2013-11-14 15:36:00,44.4,16.4,29.82,North,5,0.0,0.0,32,0.00,,---,0.00,VWS V14.01,2013-11-14 22:36:00,
2013-11-14 15:41:00,44.6,16.6,29.82,North,5,0.0,0.0,32,0.00,,---,0.00,VWS V14.01,2013-11-14 22:41:00,
2013-11-14 15:46:00,44.6,16.6,29.82,North,5,0.0,0.0,32,0.00,,---,0.00,VWS V14.01,2013-11-14 22:46:00,
2013-11-14 15:51:00,44.1,16.1,29.82,North,5,0.0,0.0,32,0.00,,---,0.00,VWS V14.01,2013-11-14 22:51:00,
2013-11-14 15:56:00,43.5,16.3,29.82,North,6,0.0,0.0,33,0.00,,---,0.00,VWS V14.01,2013-11-14 22:56:00,
2013-11-14 16:01:00,43.2,16.0,29.82,North,6,0.0,0.0,33,0.00,,---,0.00,VWS V14.01,2013-11-14 23:01:00,
2013-11-14 16:06:00,42.8,15.7,29.82,North,6,0.0,0.0,33,0.00,,---,0.00,VWS V14.01,2013-11-14 23:06:00,
2013-11-14 16:11:00,42.4,16.1,29.82,North,6,0.0,0.0,34,0.00,,---,0.00,VWS V14.01,2013-11-14 23:11:00,
2013-11-14 16:16:00,42.1,15.8,29.82,North,6,0.0,0.0,34,0.00,,---,0.00,VWS V14.01,2013-11-14 23:16:00,
2013-11-14 16:21:00,41.7,15.4,29.82,North,6,0.0,0.0,34,0.00,,---,0.00,VWS V14.01,2013-11-14 23:21:00,
2013-11-14 16:26:00,41.2,15.0,29.82,North,6,0.0,0.0,34,0.00,,---,0.00,VWS V14.01,2013-11-14 23:26:00,
2013-11-14 16:31:00,40.8,15.3,29.82,North,6,0.0,0.0,35,0.00,,---,0.00,VWS V14.01,2013-11-14 23:31:00,
2013-11-14 16:36:00,40.5,15.0,29.82,WSW,244,0.0,0.0,35,0.00,,---,0.00,VWS V14.01,2013-11-14 23:36:00,
2013-11-14 16:41:00,39.9,15.1,29.82,WSW,244,0.0,0.0,36,0.00,,---,0.00,VWS V14.01,2013-11-14 23:41:00,
2013-11-14 16:46:00,39.6,15.4,29.82,WSW,244,0.0,0.0,37,0.00,,---,0.00,VWS V14.01,2013-11-14 23:46:00,
2013-11-14 16:51:00,39.0,15.6,29.82,WSW,244,0.0,0.0,38,0.00,,---,0.00,VWS V14.01,2013-11-14 23:51:00,
2013-11-14 16:56:00,38.7,15.9,29.82,WSW,244,0.0,0.0,39,0.00,,---,0.00,VWS V14.01,2013-11-14 23:56:00,
2013-11-14 17:01:00,38.1,15.4,29.82,WSW,244,0.0,0.0,39,0.00,,---,0.00,VWS V14.01,2013-11-15 00:01:00,
2013-11-14 17:06:00,37.6,14.9,29.82,WSW,244,0.0,0.0,39,0.00,,---,0.00,VWS V14.01,2013-11-15 00:06:00,
2013-11-14 17:11:00,37.0,15.0,29.82,WSW,244,0.0,0.0,40,0.00,,---,0.00,VWS V14.01,2013-11-15 00:11:00,
2013-11-14 17:16:00,36.7,14.6,29.82,West,277,0.0,0.0,40,0.00,,---,0.00,VWS V14.01,2013-11-15 00:16:00,
2013-11-14 17:21:00,36.3,14.3,29.82,WSW,243,0.0,0.0,40,0.00,,---,0.00,VWS V14.01,2013-11-15 00:21:00,
2013-11-14 17:26:00,36.0,14.6,29.82,WSW,243,0.0,0.0,41,0.00,,---,0.00,VWS V14.01,2013-11-15 00:26:00,
2013-11-14 17:31:00,35.8,15.5,29.82,West,264,0.0,0.0,43,0.00,,---,0.00,VWS V14.01,2013-11-15 00:31:00,
2013-11-14 17:36:00,35.6,16.4,29.82,West,259,0.0,0.0,45,0.00,,---,0.00,VWS V14.01,2013-11-15 00:36:00,
2013-11-14 17:41:00,35.4,16.2,29.82,SW,234,0.0,0.0,45,0.00,,---,0.00,VWS V14.01,2013-11-15 00:41:00,
2013-11-14 17:46:00,35.1,15.9,29.82,WSW,256,0.0,3.6,45,0.00,,---,0.00,VWS V14.01,2013-11-15 00:46:00,
2013-11-14 17:51:00,35.1,16.4,29.82,West,259,0.0,3.6,46,0.00,,---,0.00,VWS V14.01,2013-11-15 00:51:00,
2013-11-14 17:56:00,34.7,16.5,29.82,West,281,0.0,3.6,47,0.00,,---,0.00,VWS V14.01,2013-11-15 00:56:00,
2013-11-14 18:01:00,34.5,16.4,29.82,West,281,0.0,0.0,47,0.00,,---,0.00,VWS V14.01,2013-11-15 01:01:00,
2013-11-14 18:06:00,34.3,16.7,29.82,WSW,257,0.0,0.0,48,0.00,,---,0.00,VWS V14.01,2013-11-15 01:06:00,
2013-11-14 18:11:00,33.8,16.2,29.82,West,280,0.0,4.0,48,0.00,,---,0.00,VWS V14.01,2013-11-15 01:11:00,
2013-11-14 18:16:00,33.4,15.9,29.82,WNW,299,0.0,0.0,48,0.00,,---,0.00,VWS V14.01,2013-11-15 01:16:00,
2013-11-14 18:21:00,32.9,15.4,29.82,WSW,238,0.0,0.0,48,0.00,,---,0.00,VWS V14.01,2013-11-15 01:21:00,
2013-11-14 18:26:00,32.5,15.5,29.82,WSW,238,0.0,0.0,49,0.00,,---,0.00,VWS V14.01,2013-11-15 01:26:00,
2013-11-14 18:31:00,32.5,15.0,29.82,SW,235,0.0,3.1,48,0.00,,---,0.00,VWS V14.01,2013-11-15 01:31:00,
2013-11-14 18:36:00,32.4,15.4,29.82,SW,235,0.0,3.1,49,0.00,,---,0.00,VWS V14.01,2013-11-15 01:36:00,
2013-11-14 18:41:00,32.5,15.5,29.82,SSE,165,3.1,4.0,49,0.00,,---,0.00,VWS V14.01,2013-11-15 01:41:00,
2013-11-14 18:46:00,32.5,16.0,29.82,South,188,0.0,0.0,50,0.00,,---,0.00,VWS V14.01,2013-11-15 01:46:00,
2013-11-14 18:51:00,32.5,16.4,29.82,South,170,0.0,2.7,51,0.00,,---,0.00,VWS V14.01,2013-11-15 01:51:00,
2013-11-14 18:56:00,32.7,16.6,29.82,WSW,240,0.0,3.1,51,0.00,,---,0.00,VWS V14.01,2013-11-15 01:56:00,
2013-11-14 19:01:00,32.5,16.4,29.82,South,171,0.0,0.0,51,0.00,,---,0.00,VWS V14.01,2013-11-15 02:01:00,
2013-11-14 19:06:00,32.5,16.4,29.82,SSW,203,0.0,4.0,51,0.00,,---,0.00,VWS V14.01,2013-11-15 02:06:00,
2013-11-14 19:11:00,32.5,16.9,29.82,SSW,203,0.0,4.0,52,0.00,,---,0.00,VWS V14.01,2013-11-15 02:11:00,
2013-11-14 19:16:00,32.5,16.4,29.82,South,178,0.0,0.0,51,0.00,,---,0.00,VWS V14.01,2013-11-15 02:16:00,
2013-11-14 19:21:00,32.0,15.9,29.82,SSE,158,0.0,0.0,51,0.00,,---,0.00,VWS V14.01,2013-11-15 02:21:00,
2013-11-14 19:26:00,31.3,15.3,29.82,SSE,158,0.0,0.0,51,0.00,,---,0.00,VWS V14.01,2013-11-15 02:26:00,
2013-11-14 19:31:00,30.9,14.9,29.82,SSE,158,0.0,0.0,51,0.00,,---,0.00,VWS V14.01,2013-11-15 02:31:00,
2013-11-14 19:36:00,30.7,14.8,29.82,SW,234,0.0,4.0,51,0.00,,---,0.00,VWS V14.01,2013-11-15 02:36:00,
2013-11-14 19:41:00,30.9,15.4,29.82,West,275,0.0,4.0,52,0.00,,---,0.00,VWS V14.01,2013-11-15 02:41:00,
2013-11-14 19:46:00,30.9,16.2,29.82,WNW,299,2.7,4.0,54,0.00,,---,0.00,VWS V14.01,2013-11-15 02:46:00,
2013-11-14 19:51:00,31.3,16.6,29.82,SSW,199,3.6,4.0,54,0.00,,---,0.00,VWS V14.01,2013-11-15 02:51:00,
2013-11-14 19:56:00,31.5,16.3,29.82,SW,218,0.0,4.0,53,0.00,,---,0.00,VWS V14.01,2013-11-15 02:56:00,
2013-11-14 20:01:00,31.5,16.3,29.82,WSW,251,0.0,3.1,53,0.00,,---,0.00,VWS V14.01,2013-11-15 03:01:00,
2013-11-14 20:06:00,31.5,16.3,29.82,SW,221,0.0,3.1,53,0.00,,---,0.00,VWS V14.01,2013-11-15 03:06:00,
2013-11-14 20:11:00,31.6,16.5,29.79,WSW,247,0.0,3.1,53,0.00,,---,0.00,VWS V14.01,2013-11-15 03:11:00,
2013-11-14 20:16:00,31.3,16.1,29.79,WSW,250,0.0,0.0,53,0.00,,---,0.00,VWS V14.01,2013-11-15 03:16:00,
2013-11-14 20:21:00,30.9,15.4,29.79,WSW,251,0.0,0.0,52,0.00,,---,0.00,VWS V14.01,2013-11-15 03:21:00,
2013-11-14 20:26:00,30.2,15.1,29.79,SSE,154,0.0,0.0,53,0.00,,---,0.00,VWS V14.01,2013-11-15 03:26:00,
2013-11-14 20:31:00,30.0,15.0,29.79,SSE,168,3.1,3.1,53,0.00,,---,0.00,VWS V14.01,2013-11-15 03:31:00,
2013-11-14 20:36:00,30.0,15.0,29.79,SW,226,3.6,3.6,53,0.00,,---,0.00,VWS V14.01,2013-11-15 03:36:00,
2013-11-14 20:41:00,30.0,15.0,29.79,SSW,213,0.0,3.6,53,0.00,,---,0.00,VWS V14.01,2013-11-15 03:41:00,
2013-11-14 20:46:00,30.2,15.1,29.79,WSW,251,3.1,3.6,53,0.00,,---,0.00,VWS V14.01,2013-11-15 03:46:00,
2013-11-14 20:51:00,30.2,15.1,29.79,SSW,213,2.2,3.6,53,0.00,,---,0.00,VWS V14.01,2013-11-15 03:51:00,
2013-11-14 20:56:00,29.8,14.8,29.79,SW,222,4.0,4.0,53,0.00,,---,0.00,VWS V14.01,2013-11-15 03:56:00,
2013-11-14 21:01:00,30.4,15.3,29.79,SE,133,0.0,0.0,53,0.00,,---,0.00,VWS V14.01,2013-11-15 04:01:00,
2013-11-14 21:06:00,30.4,15.3,29.79,South,180,0.0,3.6,53,0.00,,---,0.00,VWS V14.01,2013-11-15 04:06:00,
2013-11-14 21:11:00,30.0,15.0,29.79,South,171,0.0,5.8,53,0.00,,---,0.00,VWS V14.01,2013-11-15 04:11:00,
2013-11-14 21:16:00,29.8,14.8,29.79,South,171,2.7,3.1,53,0.00,,---,0.00,VWS V14.01,2013-11-15 04:16:00,
2013-11-14 21:21:00,29.7,14.6,29.79,WNW,290,2.2,3.6,53,0.00,,---,0.00,VWS V14.01,2013-11-15 04:21:00,
2013-11-14 21:26:00,29.5,14.5,29.79,WNW,285,0.0,3.6,53,0.00,,---,0.00,VWS V14.01,2013-11-15 04:26:00,
2013-11-14 21:31:00,29.3,14.3,29.79,WNW,285,0.0,0.0,53,0.00,,---,0.00,VWS V14.01,2013-11-15 04:31:00,
2013-11-14 21:36:00,29.3,14.3,29.79,WNW,283,0.0,0.0,53,0.00,,---,0.00,VWS V14.01,2013-11-15 04:36:00,
2013-11-14 21:41:00,29.5,14.5,29.79,ESE,116,0.0,0.0,53,0.00,,---,0.00,VWS V14.01,2013-11-15 04:41:00,
2013-11-14 21:46:00,29.8,14.8,29.79,ESE,116,0.0,0.0,53,0.00,,---,0.00,VWS V14.01,2013-11-15 04:46:00,
2013-11-14 21:51:00,30.4,15.3,29.79,ESE,116,0.0,0.0,53,0.00,,---,0.00,VWS V14.01,2013-11-15 04:51:00,
2013-11-14 21:56:00,31.8,16.2,29.79,ENE,63,0.0,0.0,52,0.00,,---,0.00,VWS V14.01,2013-11-15 04:56:00,
2013-11-14 22:01:00,32.7,17.0,29.79,SW,236,0.0,0.0,52,0.00,,---,0.00,VWS V14.01,2013-11-15 05:01:00,
2013-11-14 22:02:00,32.9,17.2,29.79,SW,236,0.0,0.0,52,0.00,,---,0.00,VWS V14.01,2013-11-15 05:02:00,
2013-11-14 22:07:00,33.3,17.1,29.79,SW,236,0.0,0.0,51,0.00,,---,0.00,VWS V14.01,2013-11-15 05:07:00,
2013-11-14 22:12:00,33.8,17.6,29.79,West,268,0.0,0.0,51,0.00,,---,0.00,VWS V14.01,2013-11-15 05:12:00,
2013-11-14 22:17:00,34.7,17.0,29.79,NW,319,2.7,6.3,48,0.00,,---,0.00,VWS V14.01,2013-11-15 05:17:00,
2013-11-14 22:22:00,37.6,16.6,29.79,NW,308,4.9,6.3,42,0.00,,---,0.00,VWS V14.01,2013-11-15 05:22:00,
2013-11-14 22:27:00,39.2,16.3,29.79,West,275,2.7,6.3,39,0.00,,---,0.00,VWS V14.01,2013-11-15 05:27:00,
2013-11-14 22:32:00,40.1,17.1,29.79,WNW,292,2.2,4.0,39,0.00,,---,0.00,VWS V14.01,2013-11-15 05:32:00,
2013-11-14 22:37:00,40.1,17.1,29.79,NW,311,3.1,5.8,39,0.00,,---,0.00,VWS V14.01,2013-11-15 05:37:00,
2013-11-14 22:42:00,39.9,16.4,29.79,WNW,287,0.0,5.8,38,0.00,,---,0.00,VWS V14.01,2013-11-15 05:42:00,
2013-11-14 22:47:00,39.9,14.5,29.79,WNW,288,0.0,3.1,35,0.00,,---,0.00,VWS V14.01,2013-11-15 05:47:00,
2013-11-14 22:52:00,39.4,15.3,29.79,WNW,289,0.0,3.1,37,0.00,,---,0.00,VWS V14.01,2013-11-15 05:52:00,
2013-11-14 22:57:00,38.1,14.8,29.79,South,179,4.9,5.4,38,0.00,,---,0.00,VWS V14.01,2013-11-15 05:57:00,
2013-11-14 23:02:00,38.8,14.2,29.79,SSW,211,0.0,4.0,36,0.00,,---,0.00,VWS V14.01,2013-11-15 06:02:00,
2013-11-14 23:07:00,39.2,13.2,29.79,SSE,163,0.0,4.0,34,0.00,,---,0.00,VWS V14.01,2013-11-15 06:07:00,
2013-11-14 23:12:00,38.3,13.1,29.79,SSW,199,0.0,4.0,35,0.00,,---,0.00,VWS V14.01,2013-11-15 06:12:00,
2013-11-14 23:17:00,37.2,12.7,29.79,SSW,199,0.0,0.0,36,0.00,,---,0.00,VWS V14.01,2013-11-15 06:17:00,
2013-11-14 23:22:00,36.0,11.6,29.79,ESE,108,0.0,0.0,36,0.00,,---,0.00,VWS V14.01,2013-11-15 06:22:00,
2013-11-14 23:27:00,35.1,11.4,29.79,ESE,108,0.0,0.0,37,0.00,,---,0.00,VWS V14.01,2013-11-15 06:27:00,
2013-11-14 23:32:00,34.7,12.9,29.79,ESE,107,0.0,0.0,40,0.00,,---,0.00,VWS V14.01,2013-11-15 06:32:00,
2013-11-14 23:37:00,34.7,12.9,29.79,SSW,192,0.0,0.0,40,0.00,,---,0.00,VWS V14.01,2013-11-15 06:37:00,
2013-11-14 23:42:00,34.5,12.7,29.79,SW,227,0.0,0.0,40,0.00,,---,0.00,VWS V14.01,2013-11-15 06:42:00,
2013-11-14 23:47:00,34.7,12.9,29.79,SW,227,0.0,0.0,40,0.00,,---,0.00,VWS V14.01,2013-11-15 06:47:00,
2013-11-14 23:52:00,34.5,12.7,29.79,WSW,238,0.0,0.0,40,0.00,,---,0.00,VWS V14.01,2013-11-15 06:52:00,
2013-11-14 23:56:00,34.5,12.7,29.79,WSW,238,0.0,0.0,40,0.00,,---,0.00,VWS V14.01,2013-11-15 06:56:00,